FW5416 Weather Reports


Display with metric or nautical units.
time (UTC)temp
F
wind
direction
speed
MPH
gust
MPH
rain 1hr
in
rain 24hr
in
rain mn
in
humidity
%
barometer
mb
20260505164529 66 281 6.0 12.0 0.00 0.00 0.00 59 1015.3
20260505163107 65 281 7.0 13.0 0.00 0.00 0.00 60 1015.3
20260505161535 64 301 7.0 14.0 0.00 0.00 0.00 61 1015.3
20260505153034 63 301 6.0 12.0 0.00 0.00 0.00 64 1015.1
20260505124531 59 340 3.0 8.0 0.00 0.00 0.00 70 1013.7
20260505123037 60 341 3.0 10.0 0.00 0.00 0.00 69 1013.5
20260505121532 60 327 3.0 8.0 0.00 0.00 0.00 68 1013.4
20260505120142 61 316 3.0 10.0 0.00 0.00 0.00 67 1013.3
20260505113034 61 299 5.0 14.0 0.00 0.00 0.00 67 1013.1
20260505111551 62 296 3.0 8.0 0.00 0.00 0.00 67 1013.0
20260505100045 63 294 6.0 14.0 0.00 0.00 0.00 65 1012.4
20260505094530 64 305 5.0 13.0 0.00 0.00 0.00 65 1012.3
20260505093030 64 295 6.0 12.0 0.00 0.00 0.00 65 1012.3
20260505091535 64 307 4.0 11.0 0.00 0.00 0.00 64 1012.2
20260505090106 64 330 4.0 10.0 0.00 0.00 0.00 63 1012.0
20260505084531 65 316 3.0 7.0 0.00 0.00 0.00 62 1012.0
20260505081530 65 298 4.0 8.0 0.00 0.00 0.00 61 1012.0
20260505074536 66 282 5.0 16.0 0.00 0.00 0.00 60 1011.8
20260505073036 66 279 5.0 11.0 0.00 0.00 0.00 60 1011.7
20260505071536 67 281 4.0 11.0 0.00 0.00 0.00 59 1011.6
20260505070030 67 268 4.0 11.0 0.00 0.00 0.00 58 1011.5
20260505064528 67 279 5.0 15.0 0.00 0.00 0.00 57 1011.3
20260505063031 68 259 4.0 13.0 0.00 0.00 0.00 55 1011.3
20260505061535 68 267 7.0 19.0 0.00 0.00 0.00 54 1011.2
20260505060031 69 263 9.0 19.0 0.00 0.00 0.00 53 1011.1
20260505054536 69 271 8.0 21.0 0.00 0.00 0.00 52 1011.0
20260505053106 70 269 8.0 22.0 0.00 0.00 0.00 50 1010.8
20260505051535 70 268 10.0 21.0 0.00 0.00 0.00 50 1010.5
20260505050145 70 271 12.0 22.0 0.00 0.00 0.00 48 1010.4
20260505041607 72 264 8.0 17.0 0.00 0.00 0.00 46 1010.1
20260505040047 72 273 10.0 24.0 0.00 0.00 0.00 46 1009.9
20260505034530 72 267 9.0 18.0 0.00 0.00 0.00 46 1009.7
20260505033035 73 267 9.0 20.0 0.00 0.00 0.00 45 1009.5
20260505031534 73 265 9.0 22.0 0.00 0.00 0.00 45 1009.4
20260505030037 74 273 10.0 21.0 0.00 0.00 0.00 44 1009.1
20260505024605 75 264 10.0 22.0 0.00 0.00 0.00 43 1008.9
20260505023036 76 263 9.0 18.0 0.00 0.00 0.00 42 1008.8
20260505021531 77 268 7.0 13.0 0.00 0.00 0.00 41 1008.8
20260505020033 78 266 10.0 20.0 0.00 0.00 0.00 41 1008.8
20260505014533 79 267 9.0 18.0 0.00 0.00 0.00 40 1008.7
20260505013032 80 269 7.0 16.0 0.00 0.00 0.00 39 1008.7
20260505011536 80 281 9.0 16.0 0.00 0.00 0.00 39 1008.7
20260505010106 81 289 8.0 18.0 0.00 0.00 0.00 38 1008.6
20260505004607 81 272 7.0 17.0 0.00 0.00 0.00 37 1008.6
20260505003036 82 266 10.0 18.0 0.00 0.00 0.00 36 1008.6
20260505001531 82 277 9.0 21.0 0.00 0.00 0.00 36 1008.7
20260505000040 82 278 10.0 21.0 0.00 0.00 0.00 35 1008.6
20260504234607 82 277 11.0 18.0 0.00 0.00 0.00 35 1008.7
20260504233031 82 277 11.0 21.0 0.00 0.00 0.00 36 1008.7
20260504231529 82 280 11.0 20.0 0.00 0.00 0.00 36 1008.8
20260504230107 83 290 8.0 15.0 0.00 0.00 0.00 36 1009.0
20260504224537 83 287 8.0 17.0 0.00 0.00 0.00 35 1009.2
20260504223106 83 296 7.0 13.0 0.00 0.00 0.00 35 1009.4
20260504221536 82 283 8.0 19.0 0.00 0.00 0.00 35 1009.5
20260504220147 83 290 9.0 17.0 0.00 0.00 0.00 35 1009.7
20260504214607 83 299 7.0 16.0 0.00 0.00 0.00 34 1009.9
20260504213115 83 294 7.0 16.0 0.00 0.00 0.00 34 1010.0
20260504211537 84 290 7.0 14.0 0.00 0.00 0.00 33 1010.2
20260504210041 83 296 4.0 12.0 0.00 0.00 0.00 33 1010.3
20260504204531 83 291 5.0 11.0 0.00 0.00 0.00 33 1010.4
20260504203033 83 287 5.0 11.0 0.00 0.00 0.00 34 1010.6
20260504201530 83 301 5.0 12.0 0.00 0.00 0.00 34 1010.7
20260504200034 83 328 3.0 8.0 0.00 0.00 0.00 36 1010.9
20260504194536 82 327 4.0 12.0 0.00 0.00 0.00 37 1010.9
20260504193036 81 321 5.0 13.0 0.00 0.00 0.00 36 1011.0
20260504184644 79 311 4.0 9.0 0.00 0.00 0.00 38 1011.3
20260504183036 78 307 5.0 10.0 0.00 0.00 0.00 38 1011.4
20260504181530 78 305 6.0 14.0 0.00 0.00 0.00 39 1011.3
20260504180037 77 309 5.0 11.0 0.00 0.00 0.00 40 1011.4
20260504174532 76 317 5.0 13.0 0.00 0.00 0.00 43 1011.4
20260504173031 75 355 4.0 12.0 0.00 0.00 0.00 46 1011.4
20260504171606 74 29 3.0 8.0 0.00 0.00 0.00 48 1011.4